[[{"header":{"parameterUnit":"m.s-1","parameterCategory":1,"la1":30.2991,"la2":30.254,"lo1":-89.0895,"lo2":-89.0444,"dy":0.0017,"dx":0.0017,"nx":28,"ny":28,"refTime":"2025-07-05T03:00:00:Z","depth":0,"parameterNumber":2,"parameterNumberName":"U-component_of_WINDS"},"data":[0,0,0,0,0,0,0,0,0,0,0,0,0,0,0,0,0,0,0,0,0,0,0,0,0,0,0,0,0,0,0,0,0,0,0,0,0,0,0,0,0,0,0,0,0,0,0,0,0,0,0,0,0,0,0,0,0,0,-0.2199,-0.2198,0,-0.2121,-0.212,-0.2119,-0.2021,-0.2019,-0.2018,-0.2016,-0.1938,-0.1937,-0.1937,0,0,0,0,0,0,0,0,0,0,0,0,0,-0.2264,-0.2264,-0.2199,-0.2198,-0.2197,-0.2121,-0.212,-0.2119,-0.2021,-0.2019,-0.2017,-0.2016,-0.1938,-0.1937,-0.1936,0,0,0,0,0,0,0,0,0,0,0,0,0,-0.2216,-0.2263,-0.2199,-0.2139,-0.2133,-0.2121,-0.212,-0.2119,-0.2022,-0.2019,-0.2017,-0.2015,-0.1938,-0.1937,-0.1936,-0.1978,0,0,-0.1933,-0.1933,0,0,0,0,0,0,0,0,-0.2219,-0.2214,-0.2149,-0.2144,-0.2137,-0.2078,-0.2114,-0.2071,-0.2022,-0.2064,-0.2016,-0.2014,-0.1987,-0.1981,-0.1972,-0.1974,-0.1971,-0.1933,-0.1933,-0.1932,-0.1932,0,0,0,0,0,0,0,-0.2222,-0.2217,-0.2168,-0.2148,-0.2141,-0.2116,-0.2107,-0.2105,-0.204,-0.206,-0.2053,-0.2045,-0.1983,-0.1973,-0.1969,-0.1969,-0.1933,-0.1933,-0.1932,-0.1932,-0.1999,-0.2002,0,0,0,0,0,0,-0.2235,-0.222,-0.2171,-0.2166,-0.2173,-0.2117,-0.2106,-0.2099,-0.2039,-0.2028,-0.2047,-0.2041,-0.1976,-0.1971,-0.1966,-0.201,-0.1932,-0.1932,-0.1931,-0.1997,-0.2,-0.2002,0,0,0,0,0,0,-0.2236,-0.2231,-0.2174,-0.2191,-0.2182,-0.2118,-0.2111,-0.2099,-0.2089,-0.2029,-0.2017,-0.205,-0.1974,-0.1968,-0.1975,-0.2006,-0.1931,-0.193,-0.1994,-0.1998,-0.2001,-0.2099,0,0,0,0,0,0,-0.2239,-0.2232,-0.2248,-0.2192,-0.2181,-0.2185,-0.2113,-0.2099,-0.2088,-0.2079,-0.2028,-0.2018,-0.1972,-0.1977,-0.1974,-0.2004,-0.193,-0.1991,-0.1996,-0.2,-0.2093,-0.2106,-0.2117,0,0,0,0,0,-0.2241,-0.2279,-0.2249,-0.2244,-0.2199,-0.2187,-0.2181,-0.2126,-0.2091,-0.2106,-0.2066,-0.2019,-0.2003,-0.1979,-0.1975,-0.2004,-0.1989,-0.1995,-0.2,-0.2088,-0.2103,-0.2116,0,0,0,0,0,0,-0.2342,-0.2271,-0.2237,-0.2258,-0.2229,-0.217,-0.2188,-0.2145,-0.2126,-0.2118,-0.2051,-0.2041,-0.2057,-0.203,-0.2005,-0.204,-0.1989,-0.1994,-0.2057,-0.2071,-0.2083,-0.209,-0.1929,0,0,0,0,0,-0.2366,-0.2362,-0.23,-0.2324,-0.2311,-0.2252,-0.2245,-0.2205,-0.2173,-0.216,-0.2121,-0.2092,-0.208,-0.2074,-0.2059,-0.2087,-0.2075,-0.2106,-0.2117,-0.2127,-0.2133,-0.2145,-0.2158,-0.202,-0.202,-0.202,0,0,-0.2417,-0.2378,-0.2379,-0.2343,-0.2316,-0.2313,-0.2243,-0.2243,-0.224,-0.216,-0.2165,-0.2135,-0.2098,-0.2116,-0.2122,-0.2095,-0.2168,-0.2134,-0.2143,-0.2143,-0.2152,-0.2165,-0.2177,-0.2024,-0.2023,-0.2022,0,0,-0.2509,-0.2478,-0.2495,-0.2468,-0.2428,-0.2387,-0.2391,-0.2338,-0.2316,-0.2319,-0.2258,-0.2253,-0.2234,-0.221,-0.2195,-0.2274,-0.223,-0.2271,-0.2334,-0.2346,-0.2357,-0.2367,-0.2395,-0.2406,-0.2276,-0.2276,-0.2276,0,-0.2578,-0.2571,-0.2509,-0.2512,-0.2498,-0.2424,-0.244,-0.2418,-0.2375,-0.2367,-0.2336,-0.2309,-0.2279,-0.229,-0.2309,-0.2299,-0.2301,-0.2278,-0.236,-0.2369,-0.2377,-0.2404,-0.2415,-0.2281,-0.2281,-0.228,-0.228,0,-0.2657,-0.2653,-0.2671,-0.2631,-0.2618,-0.2628,-0.2568,-0.2562,-0.2523,-0.2486,-0.2489,-0.2449,-0.2425,-0.2424,-0.2386,-0.2429,-0.2413,-0.2373,-0.232,-0.2397,-0.2421,-0.243,-0.2289,-0.2287,-0.2286,-0.2284,0,0,-0.2814,-0.2736,-0.2745,-0.2725,-0.2673,-0.2668,-0.2674,-0.2649,-0.2646,-0.2618,-0.2621,-0.2605,-0.2566,-0.2549,-0.2507,-0.2518,-0.2583,-0.2475,-0.2473,-0.2498,-0.2628,-0.2661,-0.2673,-0.2552,-0.2553,-0.2555,-0.2631,0,-0.2897,-0.2903,-0.2847,-0.2868,-0.2863,-0.279,-0.2795,-0.2764,-0.2728,-0.2718,-0.2678,-0.2669,-0.2618,-0.2607,-0.2614,-0.2574,-0.2608,-0.2567,-0.2555,-0.2555,-0.2569,-0.2686,-0.2721,-0.2795,-0.264,-0.2642,-0.2643,0,-0.2996,-0.2972,-0.2993,-0.2938,-0.2934,-0.294,-0.2912,-0.2903,-0.2865,-0.2838,-0.2818,-0.2769,-0.277,-0.2718,-0.2718,-0.2691,-0.2682,-0.2661,-0.2662,-0.2661,-0.2606,-0.269,-0.2818,-0.283,-0.2657,-0.2656,-0.2655,0,-0.311,-0.3083,-0.3091,-0.3076,-0.3012,-0.3018,-0.2992,-0.2951,-0.2939,-0.2914,-0.2905,-0.2881,-0.2868,-0.285,-0.2795,-0.2762,-0.2802,-0.2746,-0.278,-0.2782,-0.2795,-0.2795,-0.2925,-0.2786,-0.2785,-0.2785,-0.2785,0,-0.3211,-0.3227,-0.3141,-0.3147,-0.3162,-0.3096,-0.3112,-0.3079,-0.3043,-0.304,-0.2975,-0.2974,-0.29,-0.2891,-0.2847,-0.2854,-0.2849,-0.2827,-0.2816,-0.2834,-0.2837,-0.283,-0.2824,-0.2788,-0.2787,-0.2787,-0.2786,0,-0.3342,-0.3285,-0.329,-0.3228,-0.3213,-0.3227,-0.3173,-0.3176,-0.3134,-0.3132,-0.3127,-0.3063,-0.3048,-0.299,-0.2962,-0.2932,-0.2954,-0.2931,-0.2967,-0.296,-0.2999,-0.2997,-0.313,-0.3145,-0.2995,-0.2996,-0.2997,0,-0.3411,-0.3421,-0.336,-0.3353,-0.3329,-0.3319,-0.3306,-0.324,-0.3229,-0.3185,-0.3193,-0.3172,-0.3153,-0.3132,-0.3082,-0.306,-0.3036,-0.3084,-0.3033,-0.305,-0.3038,-0.3039,-0.304,-0.3097,-0.3099,-0.31,-0.3102,0,-0.354,-0.3511,-0.3495,-0.3468,-0.3454,-0.343,-0.3402,-0.34,-0.3326,-0.3317,-0.3301,-0.3285,-0.3255,-0.3235,-0.3204,-0.3176,-0.3127,-0.3118,-0.3125,-0.3145,-0.3166,-0.3156,-0.3,-0.3116,-0.3114,-0.3113,-0.3113,-0.3112,-0.3644,-0.3649,-0.3606,-0.359,-0.3561,-0.3536,-0.3535,-0.3492,-0.3477,-0.3447,-0.3408,-0.3396,-0.3355,-0.3308,-0.3283,-0.3272,-0.3245,-0.3256,-0.3258,-0.3263,-0.3272,-0.3166,-0.3266,-0.3266,-0.3265,-0.3265,-0.3265,0,-0.3771,-0.3739,-0.3724,-0.3686,-0.3673,-0.3625,-0.3591,-0.3584,-0.3574,-0.3539,-0.3521,-0.3501,-0.3481,-0.3428,-0.3403,-0.3404,-0.3381,-0.34,-0.3401,-0.3395,-0.3297,-0.3294,-0.3419,-0.3419,-0.3419,-0.3419,-0.3419,-0.3419,-0.3836,-0.3842,-0.3807,-0.3799,-0.3766,-0.3754,-0.3738,-0.3714,-0.3686,-0.3667,-0.3649,-0.3615,-0.3573,-0.3543,-0.3522,-0.3507,-0.3501,-0.3528,-0.3506,-0.3416,-0.3402,-0.3388,-0.3385,-0.3527,-0.3527,-0.3605,-0.3605,-0.3606]},{"header":{"parameterUnit":"m.s-1","parameterCategory":1,"la1":30.2991,"la2":30.254,"lo1":-89.0895,"lo2":-89.0444,"dy":0.0017,"dx":0.0017,"nx":28,"ny":28,"refTime":"2025-07-05T03:00:00:Z","depth":0,"parameterNumber":3,"parameterNumberName":"V-component_of_WINDS"},"data":[0,0,0,0,0,0,0,0,0,0,0,0,0,0,0,0,0,0,0,0,0,0,0,0,0,0,0,0,0,0,0,0,0,0,0,0,0,0,0,0,0,0,0,0,0,0,0,0,0,0,0,0,0,0,0,0,0,0,-1.9027,-1.9029,0,-1.9152,-1.9154,-1.9155,-1.9195,-1.9194,-1.9194,-1.9193,-1.932,-1.9324,-1.9328,0,0,0,0,0,0,0,0,0,0,0,0,0,-1.8822,-1.8826,-1.9027,-1.9029,-1.903,-1.9152,-1.9154,-1.9156,-1.9195,-1.9194,-1.9194,-1.9193,-1.9319,-1.9324,-1.9328,0,0,0,0,0,0,0,0,0,0,0,0,0,-1.8926,-1.8827,-1.9027,-1.9065,-1.9069,-1.9152,-1.9154,-1.9156,-1.9195,-1.9194,-1.9193,-1.9193,-1.9317,-1.9323,-1.9329,-1.9383,0,0,-1.9347,-1.935,0,0,0,0,0,0,0,0,-1.892,-1.8933,-1.9058,-1.9062,-1.9068,-1.9157,-1.9128,-1.9232,-1.9195,-1.9147,-1.9193,-1.9192,-1.9267,-1.9277,-1.9302,-1.9389,-1.9394,-1.9347,-1.9351,-1.9354,-1.9355,0,0,0,0,0,0,0,-1.8913,-1.8928,-1.9077,-1.9059,-1.9066,-1.9075,-1.9089,-1.9148,-1.921,-1.9151,-1.9155,-1.9169,-1.9269,-1.9296,-1.9305,-1.9396,-1.9347,-1.9353,-1.9356,-1.9358,-1.9533,-1.9534,0,0,0,0,0,0,-1.8899,-1.8922,-1.9073,-1.9081,-1.899,-1.908,-1.9095,-1.9129,-1.921,-1.9221,-1.917,-1.917,-1.9287,-1.9298,-1.931,-1.9378,-1.9354,-1.9359,-1.9362,-1.9532,-1.9534,-1.9535,0,0,0,0,0,0,-1.8895,-1.8912,-1.9068,-1.9002,-1.9023,-1.9084,-1.9122,-1.9132,-1.9159,-1.9224,-1.9235,-1.9186,-1.9286,-1.9302,-1.9364,-1.9383,-1.9362,-1.9367,-1.9531,-1.9533,-1.9534,-1.9515,0,0,0,0,0,0,-1.8889,-1.891,-1.8931,-1.9002,-1.9026,-1.912,-1.9124,-1.9135,-1.9169,-1.9172,-1.9242,-1.9252,-1.9287,-1.9355,-1.937,-1.9391,-1.9372,-1.953,-1.9532,-1.9534,-1.9514,-1.9515,-1.9517,0,0,0,0,0,-1.8881,-1.8921,-1.8932,-1.895,-1.9054,-1.9121,-1.9135,-1.9174,-1.9171,-1.9192,-1.9234,-1.925,-1.9379,-1.9362,-1.9379,-1.9401,-1.9529,-1.9531,-1.9534,-1.9513,-1.9515,-1.9517,0,0,0,0,0,0,-1.885,-1.8931,-1.8944,-1.9008,-1.9057,-1.9128,-1.9156,-1.9175,-1.9226,-1.9226,-1.9272,-1.9287,-1.9347,-1.938,-1.936,-1.9458,-1.9454,-1.946,-1.9433,-1.9435,-1.9437,-1.9427,-1.9377,0,0,0,0,0,-1.885,-1.8898,-1.8967,-1.9016,-1.904,-1.9094,-1.9125,-1.9151,-1.9204,-1.9225,-1.9271,-1.9321,-1.9373,-1.9406,-1.9458,-1.9519,-1.9535,-1.9543,-1.9545,-1.9546,-1.955,-1.9585,-1.959,-1.9543,-1.9543,-1.9543,0,0,-1.8852,-1.8902,-1.8929,-1.9011,-1.9053,-1.9101,-1.9111,-1.9162,-1.9199,-1.9233,-1.9295,-1.933,-1.939,-1.9452,-1.9482,-1.9482,-1.9567,-1.9549,-1.9549,-1.9553,-1.9588,-1.9593,-1.9596,-1.9545,-1.9544,-1.9544,0,0,-1.8879,-1.8922,-1.8968,-1.901,-1.9072,-1.9108,-1.9119,-1.9187,-1.9212,-1.9275,-1.9302,-1.9346,-1.9434,-1.9476,-1.9508,-1.9553,-1.957,-1.9568,-1.9575,-1.9609,-1.9613,-1.9616,-1.9632,-1.9637,-1.9572,-1.9572,-1.9572,0,-1.8873,-1.8948,-1.8989,-1.904,-1.9075,-1.9108,-1.9155,-1.9193,-1.9269,-1.9293,-1.9292,-1.9404,-1.9447,-1.9519,-1.953,-1.9556,-1.957,-1.956,-1.9609,-1.9613,-1.9617,-1.9632,-1.9638,-1.9572,-1.9572,-1.9572,-1.9572,0,-1.8937,-1.8988,-1.9018,-1.9091,-1.913,-1.9178,-1.9227,-1.9261,-1.9284,-1.932,-1.9384,-1.9436,-1.9499,-1.9518,-1.9541,-1.9594,-1.9593,-1.96,-1.9597,-1.962,-1.9635,-1.9641,-1.9571,-1.9571,-1.9571,-1.9571,0,0,-1.8947,-1.9043,-1.9053,-1.9087,-1.9159,-1.92,-1.925,-1.9311,-1.934,-1.9391,-1.9434,-1.9509,-1.9516,-1.9553,-1.9581,-1.9611,-1.9642,-1.9615,-1.9617,-1.9617,-1.9704,-1.9698,-1.9704,-1.9654,-1.9656,-1.9657,-1.9699,0,-1.8983,-1.9074,-1.9113,-1.9186,-1.9234,-1.9267,-1.931,-1.9359,-1.9394,-1.944,-1.9479,-1.953,-1.9537,-1.9559,-1.959,-1.9632,-1.966,-1.9629,-1.9694,-1.9696,-1.9677,-1.9712,-1.9705,-1.9742,-1.9705,-1.9706,-1.9707,0,-1.9037,-1.9089,-1.9167,-1.9233,-1.9255,-1.9293,-1.9353,-1.9397,-1.9453,-1.9477,-1.9519,-1.9545,-1.9599,-1.9594,-1.9668,-1.9647,-1.9676,-1.97,-1.9703,-1.971,-1.9702,-1.9719,-1.9755,-1.976,-1.9717,-1.9716,-1.9715,0,-1.9036,-1.9126,-1.9184,-1.9212,-1.9291,-1.9317,-1.9352,-1.9407,-1.9442,-1.9495,-1.9518,-1.9575,-1.9607,-1.9651,-1.9693,-1.9685,-1.9764,-1.9762,-1.9784,-1.9783,-1.9798,-1.9796,-1.9839,-1.9818,-1.9818,-1.9818,-1.9818,0,-1.9072,-1.9118,-1.9184,-1.922,-1.9272,-1.9318,-1.9368,-1.9405,-1.9455,-1.9498,-1.953,-1.957,-1.9623,-1.967,-1.9703,-1.9759,-1.9774,-1.9794,-1.9802,-1.979,-1.9788,-1.9809,-1.9808,-1.9819,-1.9819,-1.9819,-1.9819,0,-1.9079,-1.9125,-1.9191,-1.9261,-1.928,-1.9315,-1.9376,-1.9411,-1.9448,-1.9503,-1.9518,-1.9576,-1.9632,-1.9679,-1.9753,-1.9775,-1.9834,-1.9844,-1.9815,-1.9819,-1.9839,-1.9836,-1.9896,-1.9906,-1.9879,-1.9879,-1.9879,0,-1.9098,-1.9134,-1.9209,-1.924,-1.9274,-1.9324,-1.936,-1.9406,-1.9442,-1.951,-1.9537,-1.9597,-1.9646,-1.9735,-1.9784,-1.9841,-1.9852,-1.9869,-1.986,-1.9848,-1.9851,-1.9848,-1.9852,-1.9869,-1.9869,-1.9869,-1.9869,0,-1.9128,-1.9149,-1.9199,-1.9258,-1.93,-1.9348,-1.9397,-1.9421,-1.9477,-1.9515,-1.9574,-1.9612,-1.9689,-1.9747,-1.9809,-1.9845,-1.9866,-1.9872,-1.988,-1.9868,-1.985,-1.986,-1.9816,-1.987,-1.987,-1.987,-1.987,-1.987,-1.9141,-1.9175,-1.9233,-1.9288,-1.933,-1.9375,-1.9412,-1.9454,-1.9504,-1.9569,-1.9594,-1.9654,-1.971,-1.9796,-1.9832,-1.9879,-1.9882,-1.9893,-1.9896,-1.9898,-1.9897,-1.9843,-1.9891,-1.9891,-1.9891,-1.9891,-1.9891,0,-1.9172,-1.9211,-1.9261,-1.9329,-1.9372,-1.939,-1.9445,-1.948,-1.9533,-1.9583,-1.9632,-1.9699,-1.9756,-1.9809,-1.9869,-1.9897,-1.9908,-1.9911,-1.9909,-1.9917,-1.9891,-1.9878,-1.9901,-1.9901,-1.9901,-1.9901,-1.9901,-1.9901,-1.9193,-1.925,-1.9279,-1.9358,-1.9397,-1.9456,-1.9486,-1.9528,-1.9569,-1.9643,-1.969,-1.9725,-1.9777,-1.9841,-1.9894,-1.9908,-1.9928,-1.9928,-1.9945,-1.992,-1.9918,-1.9917,-1.9905,-1.9932,-1.9932,-1.9966,-1.9966,-1.9966]}]]